Regional Weather Roundup
Issued by NWS Goodland, KS

Home | Current Version | Previous Version | Text Only | Print | Product List | Glossary Off
Versions: 1 2 3 4 5 6 7 8 9 10 11 12 13 14 15 16 17 18 19 20 21 22 23 24 25 26 27 28 29 30 31 32 33 34 35 36 37 38 39 40 41 42 43 44 45 46 47 48 49 50

000
ASUS43 KGLD 252159
RWRGLD

GOODLAND FORECAST AREA HOURLY WEATHER ROUNDUP
NATIONAL WEATHER SERVICE GOODLAND KS
300 PM MST THU DEC 25 2014

...OFFICIAL OBSERVATIONS...

CITY           SKY/WX    TMP DP  RH WIND       PRES   REMARKS
GOODLAND KS    SUNNY     42  23  46 N17G25    29.51R
HILL CITY KS   SUNNY     55  26  32 N9        29.48R
IMPERIAL NEB   PTSUNNY   37  26  64 NE20      29.57R
MCCOOK NEB     SUNNY     42  23  46 NE10      29.53R
AKRON CO       CLOUDY    31  29  92 N21G28    29.56R WCI  18
BURLINGTON CO  SUNNY     40  26  57 N15       29.50R
LIMON CO       PTSUNNY   38  27  64 NE20      29.51R
$$

...UNOFFICIAL OBSERVATIONS...

CITY           SKY/WX    TMP DP  RH WIND       PRES   REMARKS
COLBY KS       SUNNY     41  28  60 N8        29.52R
GOVE KS          N/A     64  32  30 MISG        N/A
NORTON KS      SUNNY     48  21  34 W8        29.50R
SHARON SPRINGS   N/A     58  27  30 SW22G29     N/A
KIT CARSON CO    N/A     44  27  50 MISG        N/A
YUMA CO          N/A     36  29  74 N17         N/A
$$


USA.gov is the U.S. government's official web portal to all federal, state and local government web resources and services.